{"data":{"norad_id":63784,"intl_designator":"2025-091K","name":"STARLINK-33933","alt_names":[],"object_type":"PAYLOAD","status":"ACTIVE","operator":null,"country":"US","launch_date":"2025-05-02","launch_site_code":"AFETR","launch_vehicle":null,"mission":null,"orbit_class":"UNKNOWN","rcs_meters":null,"size_class":null,"mass_kg":null,"dimensions":null,"purposes":["comms"],"wikipedia_slug":null,"has_3d_model":false,"image_url":null,"decayed_at":null,"tle_current":{"epoch":"2026-09-20T14:48:41.135328Z","epoch_age_seconds":139774,"freshness":"FRESH","line1":"1 63784U 25091K   26263.61714277  .00013359  00000+0  49370-3 0  9995","line2":"2 63784  43.0019  24.7412 0001280 262.1354  97.9352 15.27606242 78905","mean_motion":15.27606242,"eccentricity":0.000128,"inclination_deg":43.0019,"raan_deg":24.7412,"arg_perigee_deg":262.1354,"mean_anomaly_deg":97.9352,"bstar":0.0004937,"rev_number":7890,"period_min":94.265129351311,"perigee_km":482.09229741357,"apogee_km":483.84874093848,"semimajor_km":6861.107519176,"source":"CELESTRAK","updated_at":"2026-09-21T09:00:35.099575Z"}}}